Regional Weather Roundup
Issued by NWS

Home | Current Version | Previous Version | Text Only | Print | Product List | Glossary Off
Versions: 1 2 3 4 5 6 7 8 9 10 11 12 13 14 15 16 17 18 19 20 21 22 23 24 25 26 27 28 29 30 31 32 33 34 35 36 37 38 39 40 41 42 43 44 45 46 47 48 49 50

000
ASUS45 KBOI 221010
RWRID

IDAHO REGIONAL WEATHER ROUNDUP
NATIONAL WEATHER SERVICE BOISE ID
400 AM MDT FRI SEP 22 2017

NOTE: "FAIR" INDICATES FEW OR NO CLOUDS BELOW 12000 FEET
WITH NO SIGNIFICANT WEATHER AND/OR OBSTRUCTIONS TO VISIBILITY

IDZ012-014-221100-
SOUTHWEST IDAHO


CITY           SKY/WX    TMP DP  RH WIND       PRES   REMARKS
BOISE          CLOUDY    45  38  76 NW8       29.85S
CALDWELL       CLOUDY    44  39  82 W6        29.87S
MOUNTAIN HOME  CLEAR     34  34 100 NW8       29.85S WCI  27
$$

IDZ016-017-221100-
SOUTHCENTRAL IDAHO


CITY           SKY/WX    TMP DP  RH WIND       PRES   REMARKS
BURLEY         CLOUDY    42  39  89 SW7       29.81F
JEROME         CLOUDY    39  38  96 SW5       29.83S
TWIN FALLS     CLOUDY    40  36  86 SW9       29.83F WCI  34
$$

IDZ019>023-221100-
SOUTHEAST IDAHO


CITY           SKY/WX    TMP DP  RH WIND       PRES   REMARKS
IDAHO FALLS    LGT RAIN  39  39 100 SW9       29.81F FOG     WCI  33
POCATELLO      LGT RAIN  41  40  96 S7        29.83S
REXBURG        CLOUDY    40  40 100 SW7       29.80S
$$

IDZ006-010-011-018-031-032-221100-
CENTRAL IDAHO MOUNTAINS


CITY           SKY/WX    TMP DP  RH WIND       PRES   REMARKS
MCCALL         CLOUDY    38  35  89 N5        29.81F WCI  34
HAILEY         CLOUDY    37  36  93 CALM      29.82F
STANLEY          N/A     34  33  96 CALM      29.81S
SALMON         LGT RAIN  44  37  76 CALM      29.83S
CHALLIS        LGT RAIN  38  35  89 W9        29.81S WCI  31
$$

IDZ002-004-006-007-026-221100-
NORTHERN IDAHO


CITY           SKY/WX    TMP DP  RH WIND       PRES   REMARKS
LEWISTON       CLEAR     42  39  89 CALM      29.95R
LOWELL           N/A     43  39  86 N3        29.95F
COEUR D`ALENE  CLEAR     39  38  96 E5        29.98R
MULLAN PASS    CLOUDY    31  29  92 CALM      29.93F FOG
$$



USA.gov is the U.S. government's official web portal to all federal, state and local government web resources and services.